Wind_Speed
13 14 14 15 16 17 19 19 20 20 21 19 16 14 13 14 18 18 17 18 17 18 18 19 19 18 18 19 19 19 20 21 13 20 20 19 18 19 20 18 16 18 20
11 14 16 15 17 18 17 17 17 18 17 17 17 18 19 16 15 16 19 19 20 20 20 22 23 23 22 21 21 21 21 21 21 19 21 21 21 20 19 19 20 21 21
12 14 15 15 17 15 15 15 15 15 17 18 19 19 20 20 20 20 20 20 20 22 23 24 24 24 23 21 20 21 20 20 20 21 20 22 22 22 22 21 21 20 22
14 14 16 15 13 13 13 15 17 18 20 21 20 21 20 21 22 22 17 20 24 26 23 23 22 22 23 22 21 21 21 21 22 23 23 23 23 23 23 21 21 21 21
16 16 16 12 13 15 15 17 18 19 19 19 19 20 20 21 15 13 15 20 24 26 27 27 26 24 20 21 24 26 24 23 23 22 21 22 21 20 20 20 19 18 18
17 17 15 15 14 15 15 17 19 19 19 20 21 22 20 21 16 15 16 20 26 27 28 28 28 27 23 20 17 19 24 25 24 23 23 21 23 22 21 20 19 17 10
19 18 17 14 15 15 16 18 18 19 20 21 22 21 20 21 16 20 21 22 25 27 27 28 27 26 25 24 25 25 20 20 24 24 25 26 25 24 23 22 21 20 19
19 19 17 15 16 16 17 19 19 21 21 22 21 19 21 23 20 19 18 24 26 27 27 26 26 26 26 19 19 21 21 22 21 22 26 26 24 24 24 24 22 22 21
20 19 12 18 17 17 18 19 20 22 22 21 18 19 23 25 25 17 21 24 24 25 25 24 23 24 25 23 21 22 23 23 22 24 28 31 32 31 29 25 20 18 15
18 16 16 16 16 18 18 20 21 23 21 19 17 19 22 24 19 19 17 21 23 24 23 23 23 24 25 24 22 22 21 21 20 20 20 20 22 24 30 30 25 21 20
14 12 17 17 17 17 18 21 22 22 20 12 15 19 22 18 19 17 15 20 23 24 24 23 22 7 10 12 14 16 20 20 20 22 22 22 22 23 23 22 30 28 25
9 13 17 18 15 16 19 21 21 22 16 16 17 19 20 18 17 16 18 22 22 24 23 22 13 20 18 17 15 14 14 16 16 17 17 18 17 17 19 20 21 24 29
15 18 18 16 15 17 18 20 20 17 15 16 19 19 20 20 20 17 21 23 23 23 18 21 15 14 16 14 9 11 12 12 10 12 13 13 12 12 14 16 17 18 21
17 18 17 14 12 15 16 17 14 15 13 16 19 19 20 21 21 20 24 24 21 19 19 16 13 13 13 13 10 8 7 7 9 11 11 12 12 12 14 16 17 15 16
16 16 14 12 12 15 15 12 12 8 6 12 14 15 19 20 20 22 22 22 18 19 18 11 11 13 14 12 10 9 8 9 10 10 11 12 12 11 13 11 8 9 11
14 13 11 11 11 12 12 13 10 8 11 12 8 9 13 16 19 19 20 19 16 16 11 11 13 14 13 13 14 13 12 13 12 12 12 11 11 12 14 13 5 7 9
11 11 11 10 9 8 9 11 12 9 12 8 7 8 9 15 17 17 19 17 12 13 12 12 13 14 16 16 16 16 15 14 13 12 12 11 11 11 13 12 10 7 7
9 11 8 9 7 7 8 9 9 10 13 11 9 11 10 13 15 14 16 13 12 12 12 13 14 15 15 16 16 15 16 14 14 13 11 11 11 12 10 11 11 10 10
7 9 8 7 5 7 7 7 8 9 12 12 13 11 14 16 11 9 12 12 12 12 13 13 13 14 14 15 15 15 15 14 14 14 14 13 12 12 11 11 11 11 11
8 6 7 6 6 6 6 6 8 9 11 11 12 12 13 14 13 12 10 11 11 11 12 12 12 13 13 13 14 15 16 15 15 15 15 13 13 11 10 11 10 10 10
8 6 7 8 7 6 7 7 7 8 10 10 11 7 11 9 11 10 10 10 10 10 10 11 11 12 12 13 14 14 15 15 16 16 16 16 14 13 12 10 10 10 10
8 7 6 7 6 6 6 8 7 8 9 10 10 8 7 8 9 8 9 9 8 8 8 9 9 10 11 12 13 14 15 15 15 17 17 18 15 14 13 11 11 11 11
7 7 7 8 6 6 8 8 8 8 9 10 9 10 9 9 9 8 8 8 8 8 8 7 8 9 10 10 11 11 13 14 14 15 15 16 16 15 13 12 11 12 12
7 8 10 9 7 7 8 8 9 9 9 10 9 9 9 9 9 8 8 8 8 8 7 7 7 8 9 10 10 10 11 13 13 14 12 14 13 13 13 11 12 10 11
8 9 9 9 9 8 8 9 9 9 10 9 9 9 9 9 9 8 8 8 8 8 8 7 7 8 8 9 11 11 12 12 12 13 11 12 12 12 11 10 12 11 10
8 9 9 9 9 10 8 9 9 9 9 9 9 9 9 9 9 9 8 8 8 8 8 7 7 8 8 7 11 12 12 12 12 11 11 10 11 11 11 10 11 10 10
Wind_Direction
322 326 326 327 326 327 325 328 332 324 316 321 325 325 323 320 314 304 298 296 291 287 286 281 283 282 281 279 276 274 269 267 268 275 280 279 271 263 264 267 251 251 250
323 322 324 323 321 319 327 333 326 317 318 316 312 310 308 305 304 299 300 300 294 294 293 296 295 291 292 289 282 275 273 275 279 284 283 287 285 279 272 268 264 259 261
314 319 321 318 319 326 328 324 316 315 314 311 308 305 305 301 299 299 293 287 287 287 290 289 291 296 293 288 285 286 282 281 283 279 278 277 278 278 278 274 269 267 263
310 310 318 320 322 318 314 313 315 315 315 315 313 310 308 307 306 303 308 312 304 297 290 284 283 282 283 284 286 285 287 288 282 279 275 272 270 269 269 272 273 270 268
303 310 315 307 307 316 320 318 317 315 314 314 312 310 310 311 320 328 314 309 307 303 300 294 286 280 279 283 281 283 282 283 281 278 274 271 269 266 261 265 271 273 274
300 305 303 292 310 312 315 317 317 317 318 316 313 311 313 313 317 319 318 310 305 299 295 293 291 289 280 280 280 276 268 272 277 280 282 285 289 293 294 293 293 290 283
284 293 289 295 295 306 313 316 317 318 314 313 311 312 316 314 313 321 318 316 305 298 293 291 291 288 290 284 280 275 266 264 258 263 271 270 274 275 278 278 277 274 274
294 290 294 286 293 299 307 314 321 314 315 312 312 316 314 312 327 325 328 317 305 299 295 294 292 287 286 296 296 291 284 277 268 259 257 263 263 266 266 272 278 280 277
302 303 300 294 287 298 309 318 313 314 313 316 320 318 315 311 313 325 323 316 309 306 302 298 299 296 291 298 291 283 281 277 273 267 265 266 266 264 264 270 273 275 268
311 312 303 292 303 297 307 316 313 314 319 323 313 311 308 305 311 319 317 315 308 303 304 302 295 286 282 280 278 274 277 279 288 290 286 278 268 264 259 254 255 258 263
297 309 301 301 297 302 311 312 317 322 325 330 316 313 309 313 313 320 318 317 309 312 308 302 297 342 338 315 301 287 282 289 286 285 281 277 272 267 263 251 241 242 247
301 298 302 302 303 310 307 316 325 322 326 327 319 311 316 321 324 326 326 321 321 313 306 301 322 325 324 311 297 287 288 289 278 271 269 268 266 264 262 261 257 250 246
321 307 301 301 307 308 322 316 319 325 337 324 317 323 324 331 325 328 335 327 323 319 317 324 321 323 319 310 314 297 290 279 291 297 290 290 291 286 281 278 273 263 256
302 303 305 311 324 309 314 317 330 335 329 325 327 326 328 327 327 337 330 330 329 330 325 319 333 333 323 309 316 324 307 318 313 307 313 309 304 297 285 269 263 258 251
308 305 312 305 308 316 314 334 324 329 322 325 320 324 328 325 332 331 332 333 333 332 329 345 349 348 338 352 356 353 344 343 338 333 328 327 322 321 314 305 297 282 260
309 309 317 310 315 309 319 325 328 321 325 322 303 322 329 323 327 330 335 337 340 346 350 359 356 350 347 357 2 359 360 356 349 338 336 335 334 329 325 317 283 298 298
312 308 309 298 303 315 324 328 323 327 321 291 306 333 326 333 331 333 338 340 346 360 3 360 355 350 353 360 3 359 353 353 346 344 339 339 342 334 328 340 349 333 287
306 302 288 313 314 319 323 321 317 321 320 331 322 324 334 335 333 337 344 345 357 3 1 353 355 355 355 355 358 353 348 351 352 348 351 350 348 338 349 354 352 351 347
307 306 308 295 296 301 298 303 306 315 319 324 326 329 340 334 324 337 353 358 356 357 354 353 354 354 354 353 351 348 347 357 356 353 357 355 354 351 358 360 354 354 352
290 299 292 287 283 292 300 302 308 317 321 327 327 335 336 337 342 346 352 356 354 354 352 350 351 352 353 352 350 350 352 0 3 359 354 352 356 359 356 357 0 355 356
303 284 266 278 283 300 301 295 302 310 315 320 324 332 341 327 336 340 342 349 351 350 350 349 349 351 353 352 353 353 355 358 0 1 354 352 356 1 358 2 359 357 356
296 282 261 263 280 288 300 299 291 298 306 313 318 323 319 313 328 328 334 339 342 345 344 345 349 351 352 352 352 351 352 355 355 354 350 347 356 358 355 3 4 7 7
272 277 270 263 264 291 289 288 286 289 302 308 308 310 314 314 316 318 322 325 330 335 336 339 340 345 349 352 352 352 349 346 343 341 340 345 351 356 354 359 2 4 0
268 272 268 264 256 275 284 291 292 283 285 295 299 301 304 304 303 305 305 311 314 319 324 325 329 333 339 346 347 349 343 346 346 339 346 340 348 351 352 359 353 5 358
265 274 261 258 259 269 282 289 287 283 281 287 291 294 298 296 292 294 296 300 302 307 312 315 314 325 330 337 337 341 342 348 351 352 357 346 348 351 350 354 351 349 3
276 270 263 265 265 265 269 286 288 285 286 285 285 287 287 289 287 285 286 288 292 296 298 302 304 314 324 329 326 337 344 346 350 356 9 354 355 355 354 355 357 359 1
Height
826 826 825 822 821 819 817 815 814 813 811 808 805 803 801 798 796 795 792 789 787 785 781 778 775 773 771 769 766 764 762 759 754 750 748 747 745 745 745 745 747 748 748
827 826 824 821 819 817 815 815 814 813 810 807 804 802 799 796 795 792 790 787 783 780 778 775 772 769 766 764 762 760 758 756 753 748 747 745 743 742 741 741 741 742 742
825 822 819 818 818 816 815 815 814 810 807 803 801 798 795 792 789 787 784 781 779 777 774 771 769 766 763 761 759 757 755 753 751 747 744 743 741 740 738 737 737 738 738
824 822 819 818 816 814 812 811 809 806 803 800 798 795 793 790 786 783 780 779 777 772 768 766 764 763 760 759 757 755 753 751 749 746 742 740 739 737 736 735 734 734 733
822 819 818 816 815 811 810 808 806 803 800 798 795 793 790 786 782 782 781 780 776 770 765 761 758 756 755 755 756 756 755 752 748 744 739 736 732 730 729 729 727 728 727
818 816 815 815 812 810 808 805 803 800 798 795 793 790 787 784 781 780 778 777 773 768 763 758 754 751 750 749 749 750 751 750 747 744 737 733 730 729 728 727 726 726 724
813 811 810 809 810 807 805 802 800 798 795 793 790 787 785 783 779 777 774 773 770 764 759 754 750 746 745 744 742 741 741 742 742 741 738 736 733 732 731 729 727 726 725
806 806 805 807 806 804 802 799 797 794 792 789 786 784 783 781 777 774 772 770 765 760 755 750 747 743 741 739 738 737 736 736 735 734 731 729 729 729 728 726 724 723 722
801 802 804 804 804 801 798 796 794 791 787 785 783 782 781 778 776 772 769 766 761 756 751 747 744 740 737 736 736 734 732 729 728 726 724 722 721 722 722 722 720 720 716
799 800 802 801 800 798 795 793 790 786 783 782 781 781 778 774 771 769 766 763 758 752 748 743 740 736 733 732 731 729 726 724 723 721 718 715 714 713 713 715 716 715 713
796 798 799 798 796 794 791 789 786 783 782 782 780 778 774 771 768 766 763 760 755 749 744 739 735 730 728 727 726 725 723 721 719 717 714 711 709 707 706 705 706 707 706
794 795 795 794 792 790 788 786 783 782 780 780 778 774 771 768 766 763 760 757 752 747 741 735 730 728 726 723 721 719 718 717 715 712 709 706 703 702 700 699 699 698 698
797 797 793 790 788 787 786 783 781 780 779 779 775 772 768 766 763 760 757 753 748 742 737 733 729 726 723 720 717 716 714 712 710 707 704 702 699 697 696 694 693 692 692
795 793 791 788 787 787 784 782 780 781 781 778 776 772 769 766 762 759 756 750 745 740 736 731 728 725 722 718 715 713 712 710 708 706 703 700 697 695 692 689 688 687 686
796 792 790 788 787 785 783 781 781 781 781 779 777 775 771 767 763 761 756 750 745 740 735 732 729 726 722 718 716 714 711 710 707 705 702 699 696 693 690 686 685 683 682
795 791 789 789 787 786 783 781 780 779 778 776 775 773 771 768 764 759 755 750 745 740 736 734 731 728 724 720 718 715 712 710 708 705 702 700 697 693 690 685 683 682 679
795 792 789 787 786 785 784 783 781 778 776 773 772 771 769 766 762 759 754 749 745 742 739 736 734 730 726 722 720 717 715 712 709 706 703 701 697 694 691 686 683 680 678
793 791 789 787 786 785 784 783 781 778 775 773 771 769 767 764 762 758 754 749 746 744 742 739 736 733 729 726 723 720 717 714 710 707 704 701 698 695 691 688 685 683 680
790 789 788 786 786 785 783 781 779 777 774 771 769 767 766 763 760 757 755 752 749 746 744 741 738 735 732 729 726 723 719 716 713 709 706 702 699 696 693 690 688 685 682
786 786 786 785 784 783 781 780 778 776 773 770 768 766 766 763 760 757 755 753 751 748 746 743 740 737 735 732 729 725 721 717 715 712 708 705 701 698 695 693 690 687 685
784 784 784 784 782 781 780 778 776 775 772 770 768 766 765 764 761 758 756 754 752 750 747 745 742 739 737 734 731 727 724 720 717 715 711 707 703 700 697 694 692 689 687
784 782 782 781 781 779 778 777 775 773 771 769 767 765 763 763 761 759 757 755 753 750 748 746 743 741 738 735 733 729 726 723 720 717 713 709 705 702 699 697 694 691 689
781 780 780 779 778 777 776 774 773 771 769 768 766 764 762 761 760 758 757 755 753 751 748 746 744 741 739 736 734 731 728 725 722 719 716 712 708 705 702 699 696 694 692
779 778 777 776 775 775 774 772 770 769 767 766 764 762 761 760 758 757 756 754 752 750 748 746 743 741 739 736 734 732 729 725 722 719 716 713 710 707 704 701 698 696 694
776 775 774 773 772 771 770 769 767 766 764 763 761 760 759 757 756 755 754 752 751 749 747 745 743 741 739 736 734 731 728 725 722 719 716 714 711 708 706 703 701 697 696
773 772 771 770 769 768 767 766 765 763 762 760 759 757 756 755 753 752 751 750 749 747 746 744 742 740 738 736 733 729 727 724 721 718 717 715 712 710 707 705 703 700 698